Flag for U.S.A. Weather past 2 weeks in Omaha, Nebraska, U.S.A.

Now
36 °F

Fog.


Feels Like: 30 °F
Forecast: 36 / 42 °F
Wind: 9 mph from Southeast

Location: Millard Airport

Current Time: Dec 21, 2014 at 4:06:45 AM

Latest Report: Dec 21, 2014 at 3:35 AM


Visibility: 5 mi

Pressure: 29.96 "Hg

Humidity: 92%

Dew point: 35 °F

Location of OmahaLocation

Historic Weather in Omaha — Graph

°F

Omaha temperature yesterday

Maximum temperature yesterday: 35 °F (at 11:55 PM)
Minimum temperature yesterday: 32 °F (at 1:15 AM)
Average temperature yesterday: 33 °F

Past Weeks' High & Low Weather Summary

 TemperatureHumidityPressure
High58 °F (Dec 12, 2:55 PM)97% (Dec 20, 7:15 AM)30.59 "Hg (Dec 20, 7:15 AM)
Low19 °F (Dec 17, 5:35 AM)43% (Dec 8, 3:35 PM)29.61 "Hg (Dec 15, 12:35 PM)
Average36 °F84%30.18 "Hg
* Reported Dec 6 2:15 AM — Dec 21 2:55 AM, Omaha, Weather by CustomWeather, © 2014

Note: Actual official high and low records may vary slightly from our data, if they occured in-between our weather recording intervals... More about our weather records

Advertising

Omaha weather history for previous 24 hours

 ConditionsComfort  
Time TempWeatherWind HumidityBarometerVisibility
2:55 AM
Dec 21
36 °FFog.9 mph93%29.97 "Hg4 mi
2:35 AM37 °FFog.9 mph94%29.98 "Hg4 mi
2:15 AM36 °FFog.10 mph95%29.98 "Hg4 mi
1:55 AM36 °FFog.8 mph95%29.98 "Hg3 mi
1:35 AM35 °FFog.6 mph95%29.98 "Hg2 mi
1:15 AM35 °FFog.6 mph95%29.99 "Hg2 mi
12:55 AM36 °FFog.7 mph96%30.00 "Hg2 mi
12:35 AM36 °FFog.7 mph95%30.01 "Hg2 mi
12:15 AM36 °FFog.6 mph95%30.01 "Hg3 mi
11:55 PM
Dec 20
35 °FFog.6 mph96%30.02 "Hg2 mi
11:15 PM35 °FFog.7 mph95%30.02 "Hg1 mi
10:55 PM35 °FFog.7 mph95%30.02 "Hg2 mi
10:35 PM35 °FFog.8 mph95%30.02 "Hg1 mi
10:15 PM35 °FFog.6 mph95%30.03 "Hg1 mi
9:55 PM35 °FFog.6 mph95%30.03 "Hg2 mi
9:35 PM35 °FFog.5 mph94%30.03 "Hg3 mi
9:15 PM35 °FFog.8 mph93%30.04 "Hg3 mi
8:55 PM35 °FFog.8 mph91%30.04 "Hg4 mi
8:15 PM35 °FFog.9 mph90%30.05 "Hg5 mi
7:55 PM35 °FOvercast.8 mph89%30.06 "Hg7 mi
7:15 PM35 °FOvercast.5 mph90%30.07 "Hg7 mi
6:15 PM35 °FOvercast.3 mph90%30.09 "Hg7 mi
5:55 PM35 °FLow clouds.5 mph90%30.09 "Hg7 mi
5:35 PM35 °FLow clouds.6 mph90%30.09 "Hg7 mi
5:15 PM34 °FLow clouds.6 mph91%30.08 "Hg7 mi
4:55 PM34 °FFog.9 mph92%30.07 "Hg5 mi
4:35 PM34 °FFog.7 mph92%30.08 "Hg4 mi
4:15 PM34 °FFog.7 mph93%30.07 "Hg4 mi
3:35 PM34 °FFog.7 mph93%30.08 "Hg4 mi
3:15 PM33 °FFog.6 mph95%30.07 "Hg3 mi
2:55 PM33 °FFog.6 mph95%30.06 "Hg3 mi
2:35 PM33 °FFog.6 mph95%30.05 "Hg4 mi
2:15 PM33 °FFog.5 mph94%30.06 "Hg4 mi
1:55 PM34 °FFog.5 mph93%30.07 "Hg3 mi
1:35 PM33 °FFog.6 mph95%30.07 "Hg4 mi
1:15 PM34 °FFog.6 mph93%30.07 "Hg4 mi
12:55 PM33 °FFog.No wind94%30.08 "Hg4 mi
12:35 PM34 °FFog.6 mph93%30.08 "Hg4 mi
12:15 PM33 °FFog.3 mph94%30.09 "Hg4 mi
11:15 AM33 °FFog.5 mph94%30.12 "Hg4 mi
10:55 AM33 °FFog.No wind94%30.13 "Hg4 mi
10:15 AM33 °FFog.3 mph94%30.13 "Hg4 mi
9:55 AM33 °FFog.5 mph93%30.13 "Hg5 mi
9:35 AM33 °FFog.5 mph96%30.13 "Hg3 mi
9:15 AM33 °FFog.6 mph96%30.12 "Hg2 mi
8:55 AM33 °FFog.5 mph96%30.12 "Hg2 mi
8:35 AM32 °FFog.5 mph97%30.12 "Hg2 mi
8:15 AM32 °FFog.6 mph97%30.12 "Hg2 mi
7:55 AM32 °FFog.5 mph97%30.12 "Hg2 mi
7:35 AM32 °FFog.6 mph97%30.11 "Hg2 mi
7:15 AM32 °FFog.5 mph97%30.11 "Hg2 mi
6:15 AM32 °FIce fog.7 mph96%30.11 "Hg2 mi
5:15 AM32 °FIce fog.8 mph96%30.10 "Hg2 mi
4:55 AM32 °FIce fog.7 mph96%30.11 "Hg2 mi
4:35 AM32 °FIce fog.7 mph96%30.11 "Hg2 mi
4:15 AM32 °FIce fog.6 mph96%30.12 "Hg2 mi
Weather by CustomWeather, © 2014

See weather overviewHow to use our weather pages